GW4318 Weather Reports


time (UTC)temp
C
wind
direction
speed
KPH
gust
KPH
rain 1hr
cm
rain 24hr
cm
rain mn
cm
humidity
%
barometer
mb
20260505005516 16 238 3.2 9.7 0.00 0.00 0.00 52 1009.7
20260505004539 16 141 1.6 6.4 0.00 0.00 0.00 52 1009.5
20260505003519 17 192 3.2 6.4 0.00 0.00 0.00 50 1009.2
20260505002520 17 235 4.8 11.3 0.00 0.00 0.00 50 1009.0
20260505001536 17 228 4.8 12.9 0.00 0.00 0.00 50 1008.8
20260505000617 17 223 4.8 11.3 0.00 0.00 0.00 49 1008.6
20260504235520 18 237 4.8 11.3 0.00 0.00 0.00 48 1008.3
20260504234517 18 244 4.8 12.9 0.00 0.00 0.00 47 1008.1
20260504233517 18 228 4.8 14.5 0.00 0.00 0.00 46 1007.9
20260504232517 19 218 3.2 9.7 0.00 0.00 0.00 45 1007.7
20260504231520 20 157 6.4 16.1 0.00 0.00 0.00 43 1007.5
20260504230537 20 260 4.8 17.7 0.00 0.00 0.00 40 1007.4
20260504225517 21 268 4.8 12.9 0.00 0.00 0.00 38 1007.1
20260504224539 21 228 1.6 8.0 0.00 0.00 0.00 37 1006.9
20260504223518 21 274 4.8 11.3 0.00 0.00 0.00 36 1006.8
20260504222518 21 261 3.2 12.9 0.00 0.00 0.00 36 1006.7
20260504221518 21 253 3.2 8.0 0.00 0.00 0.00 37 1006.7
20260504220518 21 261 4.8 11.3 0.00 0.00 0.00 37 1006.9
20260504215518 21 244 4.8 12.9 0.00 0.00 0.00 36 1006.9
20260504214518 22 277 6.4 12.9 0.00 0.00 0.00 36 1006.9
20260504213539 21 288 6.4 14.5 0.00 0.00 0.00 36 1006.8
20260504212518 21 268 6.4 11.3 0.00 0.00 0.00 36 1006.9
20260504211517 21 286 6.4 14.5 0.00 0.00 0.00 36 1006.8
20260504210519 22 261 6.4 12.9 0.00 0.00 0.00 36 1006.8
20260504205520 21 267 6.4 17.7 0.00 0.00 0.00 36 1006.8
20260504204519 21 191 8.0 14.5 0.00 0.00 0.00 36 1006.8
20260504203516 21 279 6.4 11.3 0.00 0.00 0.00 37 1006.9
20260504202516 22 278 6.4 14.5 0.00 0.00 0.00 36 1006.9
20260504201519 22 287 6.4 14.5 0.00 0.00 0.00 35 1006.8
20260504200520 22 252 4.8 11.3 0.00 0.00 0.00 36 1007.0
20260504195516 22 215 4.8 12.9 0.00 0.00 0.00 34 1007.0
20260504194517 21 267 8.0 14.5 0.00 0.00 0.00 36 1007.0
20260504193519 22 276 6.4 14.5 0.00 0.00 0.00 35 1007.0
20260504192517 21 265 6.4 16.1 0.00 0.00 0.00 35 1007.0
20260504191517 21 195 6.4 14.5 0.00 0.00 0.00 34 1007.1
20260504190517 21 273 6.4 19.3 0.00 0.00 0.00 35 1007.2
20260504185517 21 267 4.8 14.5 0.00 0.00 0.00 36 1007.2
20260504184518 21 250 8.0 16.1 0.00 0.00 0.00 35 1007.5
20260504183518 21 286 8.0 19.3 0.00 0.00 0.00 36 1007.5
20260504182518 21 236 6.4 16.1 0.00 0.00 0.00 36 1007.5
20260504181518 21 249 4.8 14.5 0.00 0.00 0.00 36 1007.4
20260504180538 21 248 4.8 12.9 0.00 0.00 0.00 37 1007.6
20260504175518 20 272 6.4 19.3 0.00 0.00 0.00 37 1007.6
20260504174518 20 235 6.4 14.5 0.00 0.00 0.00 37 1007.8
20260504173520 20 270 8.0 17.7 0.00 0.00 0.00 37 1008.0
20260504172516 20 253 9.7 20.9 0.00 0.00 0.00 37 1008.0
20260504171519 20 260 6.4 16.1 0.00 0.00 0.00 39 1008.0
20260504170519 20 275 8.0 14.5 0.00 0.00 0.00 38 1008.1
20260504150520 18 287 8.0 16.1 0.00 0.00 0.00 41 1009.3
20260504140518 16 273 6.4 14.5 0.00 0.00 0.00 45 1009.6
20260504130519 13 271 4.8 12.9 0.00 0.00 0.00 50 1010.6
20260504110517 8 288 1.6 6.4 0.00 0.00 0.00 61 1010.6
20260504100518 6 40 1.6 3.2 0.00 0.00 0.00 75 1010.5
20260504081539 5 0.0 0.0 0.00 0.00 0.00 81 1010.5
20260504080519 5 53 0.0 1.6 0.00 0.00 0.00 81 1010.5
20260504050522 2 311 0.0 3.2 0.00 0.00 0.00 86 1010.3
20260504045521 1 310 0.0 3.2 0.00 0.00 0.00 92 1010.5
20260504044522 0 0.0 0.0 0.00 0.00 0.00 92 1010.5
20260504043522 0 267 0.0 1.6 0.00 0.00 0.00 92 1010.5
20260504042525 0 7 0.0 1.6 0.00 0.00 0.00 92 1010.5
20260504041522 0 0.0 0.0 0.00 0.00 0.00 93 1010.5
20260504040522 1 0.0 0.0 0.00 0.00 0.00 92 1010.4
20260504035522 1 0.0 0.0 0.00 0.00 0.00 91 1010.4
20260504034520 1 0.0 0.0 0.00 0.00 0.00 90 1010.2
20260504033525 1 0.0 0.0 0.00 0.00 0.00 89 1010.2
20260504032522 1 33 0.0 1.6 0.00 0.00 0.00 89 1010.2
20260504031517 1 50 0.0 1.6 0.00 0.00 0.00 88 1010.2
20260504030517 1 108 0.0 1.6 0.00 0.00 0.00 89 1010.2
20260504025518 1 56 0.0 1.6 0.00 0.00 0.00 88 1010.2
20260504024517 2 13 0.0 1.6 0.00 0.00 0.00 86 1010.1
20260504023518 2 128 0.0 1.6 0.00 0.00 0.00 85 1010.1
20260504022518 2 39 0.0 1.6 0.00 0.00 0.00 83 1010.1
20260504021518 2 212 0.0 0.0 0.00 0.00 0.00 82 1010.0
20260504020518 2 22 0.0 1.6 0.00 0.00 0.00 82 1010.0
20260504015520 3 294 0.0 1.6 0.00 0.00 0.00 80 1010.0
20260504014518 3 15 0.0 1.6 0.00 0.00 0.00 77 1010.0
20260504013518 3 31 0.0 1.6 0.00 0.00 0.00 77 1009.9
20260504012518 3 10 0.0 1.6 0.00 0.00 0.00 74 1009.9
20260504011519 4 210 0.0 1.6 0.00 0.00 0.00 72 1009.8
20260504010539 5 23 0.0 1.6 0.00 0.00 0.00 71 1009.7